User: anonymous   Login
Location: Caltech
(34.1382°N, 118.1253°W)
Time: 14:26:09
(UTC-07:00)
Language:

SO-67 - Orbit

View from above orbital plane
View from above orbital plane
View from above satellite
View from above satellite

Ground track
Ground track

The orbit data is extracted from the following two-line orbital elements,

1 35870U 09049F   16237.47351870  .00005288  00000-0  97390-4 0  9994
2 35870  97.1176 251.4274 0003049  81.5032  22.5782 15.49590594387214
Epoch (UTC): 24 August 2016 11:21:52
Eccentricity: 0.0003049
inclination: 97.1176°
perigee height: 416 km
apogee height: 420 km
right ascension of ascending node: 251.4274°
argument of perigee: 81.5032°
revolutions per day: 15.49590594
mean anomaly at epoch: 22.5782°
orbit number at epoch: 38721

The dashed part of the orbit path shows where the satellite is in the earth's shadow,  

DLR